Terminal Aerodrome Forecast
Issued by NWS Tulsa, OK

Home | Current Version | Previous Version | Text Only | Print | Product List | Glossary On
Versions: 1 2 3 4 5 6 7 8 9 10 11 12 13
000
FTUS44 KTSA 312320
TAFFSM
TAF
KFSM 312320Z 0100/0124 10012KT P6SM SCT100 BKN250
     FM010100 07004KT P6SM SCT100 BKN250
     FM011600 12006KT P6SM SKC=

USA.gov is the U.S. government's official web portal to all federal, state and local government web resources and services.